Regional Weather Roundup
Issued by NWS

Home | Current Version | Previous Version | Graphics & Text | Print | Product List | Glossary On
Versions: 1 2 3 4 5 6 7 8 9 10 11 12 13 14 15 16 17 18 19 20 21 22 23 24 25 26 27 28 29 30 31 32 33 34 35 36 37 38 39 40 41 42 43 44 45 46 47 48 49 50
000
ASUS45 KBOI 310110
RWRID

IDAHO REGIONAL WEATHER ROUNDUP
NATIONAL WEATHER SERVICE BOISE ID
700 PM MDT TUE AUG 30 2016

NOTE: "FAIR" INDICATES FEW OR NO CLOUDS BELOW 12000 FEET
WITH NO SIGNIFICANT WEATHER AND/OR OBSTRUCTIONS TO VISIBILITY

IDZ012-014-310200-
SOUTHWEST IDAHO


CITY           SKY/WX    TMP DP  RH WIND       PRES   REMARKS
BOISE          SUNNY     89  37  16 NE7       29.87F
CALDWELL       SUNNY     88  45  22 W6        29.86R
MOUNTAIN HOME  MOSUNNY   96  38  13 N10       29.86S HX  92
$$

IDZ016-017-310200-
SOUTHCENTRAL IDAHO


CITY           SKY/WX    TMP DP  RH WIND       PRES   REMARKS
BURLEY         CLOUDY    83  57  41 CALM      29.97S
JEROME         PTSUNNY   91  36  14 E3        29.96F
TWIN FALLS     PTSUNNY   85  42  22 SE8       29.96F
$$

IDZ019>023-310200-
SOUTHEAST IDAHO


CITY           SKY/WX    TMP DP  RH WIND       PRES   REMARKS
IDAHO FALLS    CLOUDY    84  39  20 SW6       30.06F
POCATELLO      CLOUDY    92  28  10 S12       30.04S
REXBURG        CLOUDY    84  39  20 CALM      30.08S
$$

IDZ006-010-011-018-031-032-310200-
CENTRAL IDAHO MOUNTAINS


CITY           SKY/WX    TMP DP  RH WIND       PRES   REMARKS
MCCALL         PTSUNNY   79  35  20 SW6       30.04R
HAILEY         PTSUNNY   81  50  34 S5        30.09F
STANLEY          N/A     81  23  11 S7        30.17S
SALMON         CLOUDY    82  39  21 E7        29.99R
CHALLIS        CLOUDY    86  26  11 S9        30.03F
$$

IDZ002-004-006-007-026-310200-
NORTHERN IDAHO


CITY           SKY/WX    TMP DP  RH WIND       PRES   REMARKS
LEWISTON       CLOUDY    83  43  24 NW9       29.87R
LOWELL           N/A     73  60  63 N3        29.82S
COEUR D`ALENE  CLOUDY    84  48  28 CALM      29.85S
MULLAN PASS    CLOUDY    70  37  29 SE7       30.13F
$$



USA.gov is the U.S. government's official web portal to all federal, state and local government web resources and services.